Location: Breckenridge
(39.4820°N, 106.0380°W)
Time: 18:09:16
(UTC-06:00)

ISS - Pass Details

Date: 27 March 2019
Orbit: 408 x 410 km, 51.6° (Epoch: 21 April)

Event Time Altitude Azimuth Distance (km) Brightness Sun altitude
Rises 20:52:30 0° 295° (WNW) 2,327 1.8 -17.7°
Reaches altitude 10° 20:55:54 10° 332° (NNW) 1,466 -0.3 -18.3°
Maximum altitude 20:56:57 11° 351° (N) 1,400 -0.7 -18.5°
Drops below altitude 10° 20:57:59 10° 10° (N) 1,467 -0.9 -18.7°
Enters shadow 20:59:08 - 26° (NNE) 1,674 -0.8 -18.9°
